Weather History for Plattsburgh, NY

Change the Weather History Date:

Tuesday, January 22, 2013

  Actual Average Record
Temperature  
Mean Temperature 4 °F 16 °F  
Max Temperature 11 °F 27 °F 49 °F (1957)
Min Temperature -3 °F 5 °F -19 °F (1984)
Degree Days  
Heating Degree Days 61 49  
Month to date heating degree days 958 1053  
Since 1 July heating degree days 3617 3939  
Moisture  
Dew Point -5 °F    
Average Humidity 64    
Maximum Humidity 87    
Minimum Humidity 40    
Precipitation  
Precipitation T in - 0.85 in (1987)
Month to date precipitation 0.31  
Year to date precipitation 0.31  
Sea Level Pressure  
Sea Level Pressure 29.95 in    
Wind  
Wind Speed 5 mph (NNW)    
Max Wind Speed 16 mph    
Max Gust Speed 20 mph    
Visibility 8 miles    
Events Snow    
T = Trace of Precipitation, MM = Missing Value Source: NWS Daily Summary

Daily Weather History Graph

Daily Weather History Graph

Search for Another Location

Airport:

Trip Planner

Search our weather history database for the weather conditions in past years. The results will help you decide how hot, cold, wet, or windy it might be!

Date:

Astronomy

Jan. 22, 2013 Rise Set
Actual Time 7:22 AM EST 4:49 PM EST
Civil Twilight 6:50 AM EST 5:21 PM EST
Nautical Twilight 6:14 AM EST 5:56 PM EST
Astronomical Twilight 5:40 AM EST 6:31 PM EST
Moon 1:08 PM EST (1/22) 3:43 AM EST (1/22)
Length of Visible Light 10h 30m
Length of Day
9h 26m
Waxing Gibbous, 82% of the Moon is Illuminated
Jan 22
Waxing Gibbous
Jan 26
Full
Feb 3
Last Quarter
Feb 10
New
Feb 17
First Quarter

Hourly Weather History & Observations

Time (EST) Temp. Windchill Dew Point Humidity Pressure Visibility Wind Dir Wind Speed Gust Speed Precip Events Conditions
12:23 AM 6.8 °F -8.6 °F 1.4 °F 79% 29.84 in 3.0 mi NNW 11.5 mph - 0.00 in Snow Light Snow
12:48 AM 6.8 °F -8.6 °F -0.4 °F 72% 29.83 in 5.0 mi NNW 11.5 mph - 0.00 in Snow Light Snow
12:53 AM 6.1 °F -10.9 °F -0.0 °F 76% 29.85 in 5.0 mi North 13.8 mph - 0.00 in Snow Light Snow
1:53 AM 6.1 °F -5.6 °F -0.0 °F 76% 29.86 in 10.0 mi NW 6.9 mph - 0.00 in   Overcast
2:53 AM 6.1 °F -2.8 °F -0.0 °F 76% 29.86 in 10.0 mi NW 4.6 mph - N/A   Overcast
3:53 AM 3.9 °F - -0.0 °F 84% 29.86 in 10.0 mi Calm Calm - N/A   Mostly Cloudy
4:12 AM 3.2 °F - -0.4 °F 85% 29.84 in 10.0 mi Calm Calm - N/A   Scattered Clouds
4:53 AM 1.0 °F - -2.0 °F 87% 29.86 in 10.0 mi Calm Calm - N/A   Mostly Cloudy
5:53 AM 1.0 °F -11.7 °F -2.9 °F 83% 29.87 in 10.0 mi NNW 6.9 mph - N/A   Partly Cloudy
6:53 AM 1.9 °F -14.7 °F -4.0 °F 76% 29.90 in 10.0 mi North 11.5 mph - N/A   Mostly Cloudy
7:53 AM 1.9 °F -12.9 °F -4.0 °F 76% 29.93 in 9.0 mi North 9.2 mph - N/A   Scattered Clouds
8:53 AM 1.9 °F -9.2 °F -5.1 °F 72% 29.94 in 10.0 mi NNE 5.8 mph - N/A   Mostly Cloudy
9:09 AM 1.4 °F -12.5 °F -5.8 °F 72% 29.92 in 10.0 mi NNE 8.1 mph - N/A   Overcast
9:53 AM 1.9 °F -10.6 °F -5.1 °F 72% 29.95 in 10.0 mi North 6.9 mph - N/A   Overcast
10:17 AM 1.4 °F -9.9 °F -5.8 °F 72% 29.93 in 9.0 mi NNE 5.8 mph - N/A   Scattered Clouds
10:53 AM 1.9 °F -7.6 °F -4.0 °F 76% 29.95 in 10.0 mi NNW 4.6 mph - N/A   Clear
11:53 AM 3.0 °F -4.4 °F -4.0 °F 73% 29.94 in 10.0 mi North 3.5 mph - N/A   Clear
12:53 PM 7.0 °F -3.3 °F -0.9 °F 70% 29.93 in 10.0 mi North 5.8 mph - N/A   Mostly Cloudy
1:30 PM 6.8 °F -2.0 °F -0.4 °F 72% 29.92 in 2.0 mi NNE 4.6 mph - 0.00 in Snow Light Snow
1:53 PM 7.0 °F - 1.0 °F 77% 29.95 in 3.0 mi Calm Calm - 0.00 in Snow Light Snow
2:06 PM 8.6 °F - 1.4 °F 73% 29.93 in 1.8 mi Calm Calm - 0.00 in Snow Light Snow
2:11 PM 8.6 °F - 1.4 °F 73% 29.93 in 3.0 mi Calm Calm - 0.00 in Snow Light Snow
2:20 PM 8.6 °F - 1.4 °F 73% 29.93 in 9.0 mi Calm Calm - 0.00 in   Overcast
2:53 PM 10.9 °F 4.7 °F 3.0 °F 70% 29.97 in 10.0 mi NNE 3.5 mph - 0.00 in   Mostly Cloudy
3:53 PM 10.9 °F 1.4 °F -9.0 °F 40% 29.99 in 10.0 mi Variable 5.8 mph - 0.00 in   Scattered Clouds
4:53 PM 8.1 °F -2.0 °F -11.0 °F 42% 30.03 in 10.0 mi Variable 5.8 mph - N/A   Clear
5:53 PM 6.1 °F -2.8 °F -11.9 °F 44% 30.07 in 10.0 mi NW 4.6 mph 16.1 mph N/A   Clear
6:53 PM 3.9 °F -6.9 °F -16.1 °F 39% 30.09 in 10.0 mi WNW 5.8 mph - N/A   Clear
7:53 PM 3.0 °F -8.0 °F -16.1 °F 41% 30.09 in 10.0 mi NW 5.8 mph - N/A   Overcast
8:53 PM 1.9 °F -7.6 °F -15.0 °F 45% 30.10 in 10.0 mi NW 4.6 mph - N/A   Mostly Cloudy
9:53 PM 1.0 °F -11.7 °F -13.0 °F 52% 30.11 in 10.0 mi NW 6.9 mph - N/A   Overcast
10:53 PM -0.0 °F - -11.9 °F 57% 30.13 in 10.0 mi Calm Calm - N/A   Partly Cloudy
11:53 PM -2.9 °F -15.0 °F -9.9 °F 72% 30.13 in 10.0 mi NNE 5.8 mph - N/A   Clear